Location: Kopernik Observatory
(42.0014°N, 76.0372°W)
Time: 17:47:23
(UTC-05:00)

Daily predictions for brighter satellites

Satellite Brightness Start Highest point End
(mag) Time Altitude Azimuth Time Altitude Azimuth Time Altitude Azimuth
Cosmos 1833 4.2 18:12:37 10° SSW 18:18:19 85° ESE 18:24:00 10° NNE
SL-16 R/B 4.0 18:16:11 10° NW 18:21:22 37° WSW 18:26:31 10° S
Resurs 01 Rocket 2.8 18:19:59 10° ESE 18:23:23 22° ENE 18:26:47 10° NNE
Meteor 1-11 Rocket 3.9 18:17:53 10° S 18:23:31 55° E 18:29:18 10° NNE
Cosmos 676 Rocket 4.4 18:18:28 10° SSW 18:23:38 69° WNW 18:28:53 10° NNE
NOAA 12 4.2 18:18:34 10° SSE 18:23:48 62° ENE 18:29:04 10° N
Cosmos 2333 Rocket 3.4 18:21:08 10° N 18:25:39 23° NE 18:30:09 10° ESE
Cosmos 1140 Rocket 3.4 18:21:25 10° SSW 18:26:32 78° ESE 18:31:43 10° NNE
Cosmos 614 Rocket 4.0 18:22:32 10° S 18:27:31 59° ESE 18:32:30 10° NNE
NOSS 8 (E) 4.5 18:27:00 10° SSW 18:30:27 88° SE 18:34:13 10° NE
FENGYUN 3A 4.1 18:26:02 10° SE 18:31:00 39° ENE 18:35:59 10° N
ATLAS CENTAUR R/B 3.4 18:32:15 10° S 18:34:35 14° SE 18:36:03 11° ESE
Meteor 1-28 Rocket 3.7 18:31:43 10° N 18:35:30 67° WNW 18:39:17 10° SSW
Cosmos 1570 Rocket 4.0 18:30:46 10° NNW 18:35:58 60° ENE 18:41:08 10° SSE
GPS 2-04 Rocket1 4.1 18:32:19 10° SW 18:36:03 31° S 18:39:42 11° ESE
Cosmos 2181 Rocket 4.0 18:29:50 10° N 18:36:08 78° E 18:42:30 10° S
Cosmos 1633 2.8 18:35:16 10° SSW 18:38:57 77° W 18:42:39 10° N
USA 229 DEB 4.0 18:32:16 10° NNW 18:39:15 54° NE 18:46:19 10° SE
USA 229 4.0 18:32:22 10° NNW 18:39:21 54° NE 18:46:25 10° SE
Genesis I 3.2 18:35:58 10° NW 18:39:56 89° SW 18:43:51 10° SSE
Cosmos 1238 Rocket 2.1 18:37:22 10° N 18:40:19 85° W 18:43:23 10° S
Okean 1 Rocket 3.1 18:37:24 10° S 18:41:51 68° E 18:46:19 10° NNE
Cosmos 1709 Rocket 4.2 18:37:50 10° SSW 18:44:02 77° W 18:50:13 10° N
Cosmos 2074 Rocket 4.2 18:39:36 10° SSE 18:45:33 48° E 18:51:32 10° NNE
METEOR-M 4.2 18:40:22 10° SSE 18:45:43 87° WSW 18:51:06 10° NNW
NOSS 8 (H) 4.4 18:42:24 10° SW 18:45:45 89° WNW 18:49:23 10° NE
Cosmos 1025 Rocket 3.3 18:43:51 10° N 18:48:04 44° ENE 18:52:16 10° SSE
OTV 4 2.5 18:48:30 10° SSW 18:50:20 15° SSE 18:51:22 13° SE
Spot 2 Rocket 3.8 18:46:03 10° SE 18:50:48 43° ENE 18:55:36 10° N
Cosmos 2184 Rocket 4.1 18:45:51 10° SSE 18:51:54 51° E 18:57:56 10° NNE
FengYun 1-2 T 4.2 18:50:31 10° SSE 18:55:54 62° ENE 19:01:21 10° N
Cosmos 2322 4.5 18:51:45 10° NNW 18:57:20 56° WSW 19:02:52 10° S
Hubble Space Telescope 3.2 19:00:39 10° S 19:01:42 11° S 19:02:45 10° SSE
BREEZE-M DEB (TANK) 2.4 19:00:29 10° SW 19:04:27 54° SSE 19:05:20 33° E
Cosmos 1850 Rocket 4.3 19:01:12 10° SSW 19:06:30 75° WNW 19:11:52 10° NNE
Cosmos 2208 Rocket 4.2 19:01:32 10° NNW 19:07:00 80° WSW 19:12:23 10° SSE
Envisat 4.2 19:06:50 21° ENE 19:07:31 22° ENE 19:11:19 10° NNE
Nadezhda 3 Rocket 4.5 19:03:32 10° N 19:09:11 36° ENE 19:14:50 10° SE
SJ-6B 3.4 19:05:17 10° S 19:09:13 59° W 19:13:04 10° NNW
Cosmos 1544 Rocket 4.1 19:05:32 10° SSE 19:09:23 32° E 19:13:16 10° NNE
NOSS 3-1 (C) 4.4 19:02:37 10° NNW 19:09:41 44° NE 19:14:48 21° ESE
NOSS 0 Rocket 4.1 19:04:39 10° NNW 19:10:38 50° ENE 19:15:08 17° SE
Cosmos 405 Rocket 3.2 19:07:02 10° N 19:10:56 41° ENE 19:13:11 21° SE
Cosmos 2237 Rocket 2.8 19:06:46 10° N 19:12:01 36° ENE 19:14:36 24° ESE
ALOS 2.3 19:08:09 10° SSE 19:12:49 86° WSW 19:17:32 10° NNW
HJ-1C 3.5 19:10:41 10° S 19:14:03 77° WSW 19:17:26 10° NNW
Cosmos 2333 4.2 19:08:37 10° NNW 19:14:23 88° WSW 19:20:09 10° SSE
Cosmos 2297 Rocket 3.1 19:10:06 10° SSE 19:14:23 24° ESE 19:14:23 24° ESE
H-2A R/B 2.6 19:12:14 10° SSE 19:15:54 67° ENE 19:19:39 10° N
COSMOS 2428 2.9 19:10:31 10° NNW 19:16:13 75° WSW 19:21:53 10° SSE
CZ-2D R/B 3.4 19:14:14 20° SE 19:16:38 49° ENE 19:20:20 10° N
Okean 1-7 Rocket 4.1 19:14:21 10° NNW 19:18:50 62° W 19:23:13 10° S
Cosmos 2154 Rocket 4.2 19:15:24 10° SSE 19:21:24 46° E 19:27:24 10° NNE
Meteor 2-4 Rocket 4.1 19:16:05 10° NNW 19:21:32 62° W 19:26:49 10° S
Cosmos 2285 Rocket 4.0 19:16:35 10° NNW 19:23:03 85° ENE 19:29:28 10° SSE
Gbstr 26 Del rocket 3.9 19:20:09 10° W 19:23:41 35° NNW 19:25:40 20° NNE
Cosmos 2360 Rocket 4.2 19:19:28 10° NW 19:24:15 29° WSW 19:29:01 10° SSW
Cosmos 2219 Rocket 2.1 19:18:49 10° NNW 19:24:26 73° ENE 19:28:57 16° SSE
Okean 2 3.3 19:24:17 10° N 19:28:29 87° ENE 19:32:40 10° S
Cosmos 2219 3.9 19:27:16 10° SW 19:32:55 57° WNW 19:38:34 10° NNE
Atlas Centaur 2 4.2 19:30:43 10° SSW 19:34:43 16° SSE 19:35:47 15° SSE
Cosmos 2227 Rocket 2.3 19:29:23 10° S 19:34:47 48° ESE 19:38:28 20° NE
Helios 1A 2.9 19:33:28 39° SE 19:34:50 64° ENE 19:38:57 10° N
Helios 1B rocket 2.4 19:30:58 10° NNE 19:35:04 55° E 19:39:08 10° S
Cosmos 1486 Rocket 4.3 19:30:15 10° S 19:35:13 42° ESE 19:36:14 38° ENE
Abrixas rocket 2.8 19:33:32 10° W 19:36:49 50° NNW 19:37:11 47° N
SAR-Lupe-1 3.9 19:44:48 85° N 19:44:48 85° N 19:48:18 10° NNW
SAR-Lupe-4 3.6 19:44:54 55° S 19:45:34 74° WSW 19:49:08 10° NNW
Cosmos 1455 Rocket 2.9 19:42:26 10° S 19:46:48 70° E 19:51:08 10° NNE
Cosmos 841 Rocket 3.9 19:41:55 10° N 19:46:24 40° NE 19:46:24 40° NE
SL-16 R/B 3.1 19:42:46 10° N 19:47:22 31° NE 19:47:22 31° NE
Cosmos 962 Rocket 4.4 19:45:36 10° S 19:51:39 59° E 19:57:41 10° NNE
Meteor 2-8 Rocket 4.5 19:48:06 10° N 19:54:01 53° ENE 19:54:42 51° ESE
Cosmos 1437 4.5 19:51:04 10° NNW 19:52:45 28° NNW 19:52:45 28° NNW
Cosmos 1763 Rocket 3.4 19:52:24 10° NNW 19:57:29 63° ENE 19:57:29 63° ENE
Resurs 01 Rocket 3.2 19:55:37 10° SSW 19:59:39 35° W 20:03:43 10° NNW
Cosmos 2333 Rocket 2.6 20:04:40 10° NNW 20:10:21 60° WSW 20:12:59 31° S
GEOS 3 Rocket 3.9 20:08:20 27° NNE 20:11:12 65° NW 20:16:26 10° SW
Cosmos 1980 3.8 20:05:45 10° NNW 20:11:24 74° WSW 20:12:50 50° S
GPS 2-04 Rocket1 4.5 20:11:36 10° WSW 20:14:12 28° SW 20:14:12 28° SW
Cosmos 1295 Rocket 4.4 20:33:36 72° SSW 20:34:14 82° W 20:40:35 10° N
Cosmos 2082 4.1 20:31:25 10° SW 20:37:05 62° WNW 20:37:59 54° NNW
ERS-1 Rocket 4.5 20:45:10 30° NNW 20:45:10 30° NNW 20:47:38 10° NNW
NOSS 3-1 (A) 4.0 20:35:29 10° NW 20:43:09 82° WSW 20:44:06 72° S
Envisat 4.0 20:47:02 44° WNW 20:47:02 44° WNW 20:51:07 10° NNW
ATLAS 2AS CENTAUR R/B 3.7 20:41:21 10° NNW 20:48:06 41° NNE 20:48:06 41° NNE
Cosmos 2237 Rocket 3.5 20:50:56 10° NW 20:56:01 34° WSW 20:56:29 33° WSW
Cosmos 2297 Rocket 3.4 20:52:47 10° SW 20:56:25 36° WSW 20:56:25 36° WSW
Cosmos 2227 Rocket 4.0 21:14:19 10° WSW 21:19:04 27° NW 21:20:37 24° NNW
SL-16 R/B 4.1 21:26:43 10° NW 21:29:17 25° NW 21:29:17 25° NW
